• In Deutschland
  • Länderverzeichnis
  • Für 7 Tage
  • Wassertemperatur
  • Satellitenkarten
  • Wetterkarte
  • Widgets
  • user-avatar
    Anmelden

    Stündliche Wetter Cobija

    Heute, 20 August, Sonntag

    Zeit Temperatur Niederschläge Wind Luftdruck Luftfeuchtigkeit
    00:00 +24°C° 0 mm 0 m/S 736 mmHg 70%
    01:00 +24°C° 0 mm 0 m/S 736 mmHg 73%
    02:00 +26°C° 0 mm 1 m/S 736 mmHg 75%
    03:00 +25°C° 0 mm 1 m/S 737 mmHg 76%
    04:00 +25°C° 0 mm 1 m/S 737 mmHg 77%
    05:00 +26°C° 0 mm 1 m/S 737 mmHg 75%
    06:00 +24°C° 0 mm 0 m/S 738 mmHg 74%
    07:00 +25°C° 0 mm 0 m/S 739 mmHg 72%
    08:00 +30°C° 0 mm 1 m/S 739 mmHg 61%
    09:00 +33°C° 0 mm 1 m/S 739 mmHg 51%
    10:00 +36°C° 0 mm 1 m/S 740 mmHg 41%
    11:00 +35°C° 0 mm 1 m/S 739 mmHg 43%
    12:00 +34°C° 0 mm 1 m/S 739 mmHg 46%
    13:00 +32°C° 0 mm 0 m/S 738 mmHg 48%
    14:00 +32°C° 0 mm 0 m/S 738 mmHg 50%
    15:00 +33°C° 0 mm 1 m/S 737 mmHg 52%
    16:00 +33°C° 0 mm 1 m/S 737 mmHg 53%
    17:00 +31°C° 0,3 mm 1 m/S 738 mmHg 60%
    18:00 +29°C° 0,3 mm 1 m/S 738 mmHg 66%
    19:00 +28°C° 0,3 mm 1 m/S 738 mmHg 73%
    20:00 +27°C° 0,3 mm 1 m/S 739 mmHg 77%
    21:00 +27°C° 0,3 mm 1 m/S 739 mmHg 81%
    22:00 +26°C° 0,3 mm 1 m/S 740 mmHg 86%
    23:00 +26°C° 1 mm 1 m/S 740 mmHg 88%

    Morgen, 21 August, Montag

    Zeit Temperatur Niederschläge Wind Luftdruck Luftfeuchtigkeit
    00:00 +25°C° 1 mm 2 m/S 740 mmHg 90%
    01:00 +25°C° 1 mm 3 m/S 740 mmHg 92%
    02:00 +24°C° 0,9 mm 2 m/S 740 mmHg 92%
    03:00 +24°C° 0,9 mm 2 m/S 741 mmHg 93%
    04:00 +23°C° 0,9 mm 2 m/S 741 mmHg 93%
    05:00 +23°C° 0,2 mm 2 m/S 741 mmHg 89%
    06:00 +23°C° 0,2 mm 2 m/S 742 mmHg 86%
    07:00 +22°C° 0,2 mm 3 m/S 742 mmHg 83%
    08:00 +25°C° 0 mm 3 m/S 743 mmHg 73%
    09:00 +27°C° 0 mm 3 m/S 744 mmHg 63%
    10:00 +29°C° 0 mm 3 m/S 744 mmHg 53%
    11:00 +30°C° 0 mm 3 m/S 743 mmHg 50%
    12:00 +31°C° 0 mm 2 m/S 742 mmHg 47%
    13:00 +32°C° 0 mm 2 m/S 741 mmHg 44%
    14:00 +32°C° 0 mm 2 m/S 741 mmHg 45%
    15:00 +32°C° 0 mm 2 m/S 740 mmHg 46%
    16:00 +32°C° 0 mm 2 m/S 739 mmHg 46%
    17:00 +30°C° 0 mm 1 m/S 740 mmHg 53%
    18:00 +28°C° 0 mm 1 m/S 740 mmHg 59%
    19:00 +26°C° 0 mm 1 m/S 741 mmHg 65%
    20:00 +25°C° 0 mm 1 m/S 741 mmHg 66%
    21:00 +24°C° 0 mm 1 m/S 741 mmHg 67%
    22:00 +24°C° 0 mm 1 m/S 742 mmHg 68%
    23:00 +23°C° 0 mm 1 m/S 741 mmHg 68%

    übermorgen, 22 August, Dienstag

    Zeit Temperatur Niederschläge Wind Luftdruck Luftfeuchtigkeit
    00:00 +23°C° 0 mm 1 m/S 741 mmHg 68%
    01:00 +23°C° 0 mm 1 m/S 740 mmHg 69%
    02:00 +22°C° 0 mm 1 m/S 740 mmHg 68%
    03:00 +22°C° 0 mm 1 m/S 740 mmHg 68%
    04:00 +22°C° 0 mm 1 m/S 740 mmHg 68%
    05:00 +22°C° 0 mm 1 m/S 740 mmHg 66%
    06:00 +23°C° 0 mm 1 m/S 741 mmHg 63%
    07:00 +23°C° 0 mm 2 m/S 742 mmHg 60%
    08:00 +26°C° 0 mm 2 m/S 742 mmHg 51%
    09:00 +28°C° 0 mm 2 m/S 742 mmHg 42%
    10:00 +31°C° 0 mm 2 m/S 743 mmHg 34%
    11:00 +34°C° 0 mm 2 m/S 741 mmHg 32%
    12:00 +34°C° 0 mm 1 m/S 740 mmHg 30%
    13:00 +36°C° 0 mm 1 m/S 739 mmHg 28%
    14:00 +35°C° 0 mm 1 m/S 738 mmHg 29%
    15:00 +33°C° 0 mm 0 m/S 738 mmHg 31%
    16:00 +33°C° 0 mm 0 m/S 737 mmHg 32%
    17:00 +30°C° 0 mm 0 m/S 737 mmHg 38%
    18:00 +28°C° 0 mm 0 m/S 737 mmHg 45%
    19:00 +25°C° 0 mm 0 m/S 737 mmHg 51%
    20:00 +25°C° 0 mm 0 m/S 738 mmHg 53%
    21:00 +24°C° 0 mm 0 m/S 738 mmHg 54%
    22:00 +24°C° 0 mm 0 m/S 739 mmHg 56%
    23:00 +23°C° 0 mm 0 m/S 738 mmHg 57%

    23 August, Mittwoch

    Zeit Temperatur Niederschläge Wind Luftdruck Luftfeuchtigkeit
    00:00 +23°C° 0 mm 0 m/S 738 mmHg 58%
    01:00 +22°C° 0 mm 0 m/S 737 mmHg 59%
    02:00 +22°C° 0 mm 0 m/S 737 mmHg 60%
    03:00 +22°C° 0 mm 0 m/S 737 mmHg 61%
    04:00 +22°C° 0 mm 0 m/S 737 mmHg 62%
    05:00 +22°C° 0 mm 0 m/S 737 mmHg 62%
    06:00 +23°C° 0 mm 0 m/S 738 mmHg 61%
    07:00 +24°C° 0 mm 0 m/S 738 mmHg 61%
    08:00 +27°C° 0 mm 0 m/S 739 mmHg 52%
    09:00 +31°C° 0 mm 0 m/S 739 mmHg 43%
    10:00 +36°C° 0 mm 1 m/S 739 mmHg 34%
    11:00 +37°C° 0 mm 1 m/S 738 mmHg 32%
    12:00 +37°C° 0 mm 1 m/S 737 mmHg 30%
    13:00 +39°C° 0 mm 1 m/S 736 mmHg 29%
    14:00 +37°C° 0 mm 1 m/S 735 mmHg 31%
    15:00 +37°C° 0 mm 1 m/S 735 mmHg 33%
    16:00 +36°C° 0 mm 1 m/S 734 mmHg 35%
    17:00 +34°C° 0 mm 1 m/S 735 mmHg 41%
    18:00 +31°C° 0 mm 1 m/S 735 mmHg 47%
    19:00 +29°C° 0 mm 1 m/S 735 mmHg 54%
    20:00 +27°C° 0 mm 0 m/S 736 mmHg 55%
    21:00 +26°C° 0 mm 0 m/S 736 mmHg 56%
    22:00 +26°C° 0 mm 0 m/S 736 mmHg 57%
    23:00 +25°C° 0 mm 0 m/S 736 mmHg 59%

    24 August, Donnerstag

    Zeit Temperatur Niederschläge Wind Luftdruck Luftfeuchtigkeit
    00:00 +25°C° 0 mm 0 m/S 736 mmHg 60%
    01:00 +26°C° 0 mm 1 m/S 736 mmHg 62%
    02:00 +26°C° 0 mm 1 m/S 736 mmHg 64%
    03:00 +26°C° 0 mm 1 m/S 736 mmHg 66%
    04:00 +25°C° 0 mm 1 m/S 736 mmHg 68%
    05:00 +26°C° 0 mm 1 m/S 737 mmHg 68%
    06:00 +26°C° 0 mm 1 m/S 738 mmHg 68%
    07:00 +25°C° 0 mm 0 m/S 739 mmHg 67%
    08:00 +30°C° 0 mm 1 m/S 739 mmHg 59%
    09:00 +32°C° 0 mm 1 m/S 739 mmHg 50%
    10:00 +35°C° 0 mm 1 m/S 739 mmHg 42%
    11:00 +36°C° 0 mm 1 m/S 739 mmHg 39%
    12:00 +37°C° 0 mm 1 m/S 738 mmHg 35%
    13:00 +39°C° 0 mm 1 m/S 737 mmHg 32%
    14:00 +37°C° 0 mm 1 m/S 736 mmHg 36%
    15:00 +36°C° 0 mm 1 m/S 736 mmHg 39%
    16:00 +35°C° 0 mm 1 m/S 735 mmHg 42%
    17:00 +33°C° 0 mm 1 m/S 736 mmHg 48%
    18:00 +31°C° 0 mm 1 m/S 736 mmHg 54%
    19:00 +27°C° 0 mm 0 m/S 736 mmHg 60%
    20:00 +27°C° 0 mm 0 m/S 736 mmHg 62%
    21:00 +26°C° 0 mm 0 m/S 737 mmHg 65%
    22:00 +26°C° 0 mm 0 m/S 737 mmHg 67%
    23:00 +25°C° 0 mm 0 m/S 737 mmHg 70%

    25 August, Freitag

    Zeit Temperatur Niederschläge Wind Luftdruck Luftfeuchtigkeit
    00:00 +27°C° 0 mm 1 m/S 736 mmHg 72%
    01:00 +26°C° 0 mm 1 m/S 736 mmHg 74%
    02:00 +26°C° 0 mm 1 m/S 736 mmHg 77%
    03:00 +26°C° 0 mm 1 m/S 737 mmHg 79%
    04:00 +25°C° 0 mm 1 m/S 737 mmHg 81%
    05:00 +26°C° 0,1 mm 1 m/S 738 mmHg 79%
    06:00 +26°C° 0,1 mm 1 m/S 738 mmHg 78%
    07:00 +27°C° 0,1 mm 1 m/S 739 mmHg 77%
    08:00 +30°C° 0 mm 1 m/S 739 mmHg 66%
    09:00 +33°C° 0 mm 1 m/S 740 mmHg 55%
    10:00 +36°C° 0 mm 1 m/S 740 mmHg 44%
    11:00 +37°C° 0 mm 1 m/S 739 mmHg 40%
    12:00 +39°C° 0 mm 1 m/S 738 mmHg 36%
    13:00 +40°C° 0 mm 1 m/S 737 mmHg 32%
    14:00 +39°C° 0 mm 1 m/S 736 mmHg 35%
    15:00 +37°C° 0 mm 1 m/S 736 mmHg 37%
    16:00 +36°C° 0 mm 1 m/S 735 mmHg 40%
    17:00 +34°C° 0 mm 1 m/S 735 mmHg 45%
    18:00 +30°C° 0 mm 0 m/S 736 mmHg 50%
    19:00 +28°C° 0 mm 0 m/S 736 mmHg 55%
    20:00 +28°C° 0,4 mm 0 m/S 737 mmHg 60%
    21:00 +27°C° 0,4 mm 0 m/S 737 mmHg 64%
    22:00 +26°C° 0,4 mm 0 m/S 737 mmHg 69%
    23:00 +26°C° 0,1 mm 0 m/S 737 mmHg 70%
    Mehr zeigen